This is the latest recevied weather packets stored in our database for station/object W9PEM-13. If no packets are shown the sender has not sent any weather packets the latest 10 day(s).
| Time | Temp. | Humidity | Pressure | Rain* | Wind** | Luminosity | Snow |
|---|---|---|---|---|---|---|---|
| 1777921595 | 24.44° C | 35% | 967.2 hPa | 0.76 mm | - | 719 W/m² | - |
| 1777920694 | 24.44° C | 35% | 967.1 hPa | 0.76 mm | - | 810 W/m² | - |
| 1777919854 | 24.44° C | 34% | 967.2 hPa | 1.02 mm | - | 893 W/m² | - |
| 1777918474 | 23.89° C | 35% | 967.3 hPa | 1.27 mm | - | 789 W/m² | - |
| 1777917934 | 24.44° C | 35% | 967.2 hPa | 2.29 mm | - | 789 W/m² | - |
| 1777917813 | 24.44° C | 34% | 967.2 hPa | 2.29 mm | - | 793 W/m² | - |
| 1777917634 | 24.44° C | 34% | 967.3 hPa | 2.29 mm | - | 698 W/m² | - |
| 1777917395 | 24.44° C | 34% | 967.3 hPa | 2.54 mm | - | 890 W/m² | - |
| 1777917095 | 23.89° C | 34% | 967.3 hPa | 2.54 mm | - | 900 W/m² | - |
| 1777916976 | 23.89° C | 34% | 967.3 hPa | 2.54 mm | - | 764 W/m² | - |
| 1777916438 | 23.89° C | 34% | 967.6 hPa | 2.54 mm | - | 891 W/m² | - |
| 1777916135 | 23.89° C | 35% | 967.5 hPa | 2.54 mm | - | 871 W/m² | - |
| 1777915716 | 23.33° C | 34% | 967.5 hPa | 3.05 mm | - | 894 W/m² | - |
| 1777915115 | 23.33° C | 34% | 967.7 hPa | 2.79 mm | - | 862 W/m² | - |
| 1777914516 | 23.33° C | 34% | 967.8 hPa | 2.29 mm | - | 822 W/m² | - |
| 1777913914 | 23.33° C | 34% | 968 hPa | 1.78 mm | - | 871 W/m² | - |
| 1777912777 | 22.78° C | 35% | 968.2 hPa | 2.54 mm | - | 848 W/m² | - |
| 1777912177 | 22.22° C | 35% | 968.2 hPa | 2.29 mm | - | 800 W/m² | - |
| 1777911577 | 22.22° C | 35% | 968.4 hPa | 1.78 mm | - | 768 W/m² | - |
| 1777910976 | 22.22° C | 36% | 968.6 hPa | 1.52 mm | - | 832 W/m² | - |
| 1777910377 | 22.22° C | 35% | 968.8 hPa | 1.52 mm | - | 694 W/m² | - |
| 1777909775 | 21.67° C | 35% | 969 hPa | 1.02 mm | - | 763 W/m² | - |
| 1777909177 | 21.67° C | 37% | 969.2 hPa | 0.51 mm | - | 762 W/m² | - |
| 1777908996 | 21.67° C | 36% | 969.1 hPa | 0.51 mm | - | 757 W/m² | - |
| 1777908397 | 21.67° C | 37% | 969.2 hPa | 0.51 mm | - | 729 W/m² | - |
* Rain latest hour (hover to see other rain measurements)
** Current wind speed in m/s (hover to see current wind gust speed)